GFSFLT1_700_temp_000.txt.gz
Temp
5 5 5 5 4 3 3 3 2 2 2 2 2 2 1 1 1 1 0 -0 -1 -1 -1 -1 -2 -2 -2 -2 -2 -2 -2 -2
6 5 5 4 4 3 3 2 2 2 2 1 1 1 1 0 -0 -1 -1 -1 -1 -1 -1 -1 -2 -2 -3 -3 -3 -3 -3 -3
5 5 4 4 3 3 3 2 2 1 1 1 0 -0 -0 -1 -1 -1 -1 -1 -2 -2 -1 -1 -2 -2 -3 -3 -3 -3 -3 -3
4 4 4 3 2 2 2 1 1 0 -1 -1 -1 -1 -1 -1 -2 -2 -2 -2 -2 -2 -2 -2 -2 -3 -3 -4 -4 -5 -5 -5
4 3 3 2 2 1 1 1 0 -0 -1 -1 -1 -1 -2 -2 -2 -2 -2 -2 -2 -2 -2 -2 -3 -4 -4 -4 -5 -5 -6 -6
3 2 2 1 1 1 0 -0 -0 -1 -1 -1 -2 -2 -2 -2 -2 -2 -2 -2 -2 -2 -2 -2 -3 -3 -4 -4 -6 -6 -6 -7
2 2 2 1 1 1 0 -0 -1 -1 -2 -2 -2 -2 -2 -2 -2 -2 -2 -2 -2 -2 -2 -2 -3 -3 -4 -4 -5 -6 -6 -7
2 2 1 1 0 -0 -1 -1 -1 -2 -2 -2 -2 -2 -2 -3 -3 -3 -2 -2 -2 -2 -3 -3 -4 -4 -5 -5 -6 -7 -7 -6
1 1 0 -0 -1 -1 -1 -2 -2 -3 -2 -3 -3 -3 -3 -3 -3 -3 -3 -3 -3 -4 -5 -5 -6 -7 -8 -8 -7 -7 -7 -7
0 -0 -1 -2 -2 -3 -3 -3 -3 -2 -3 -3 -3 -3 -3 -3 -3 -3 -3 -4 -5 -6 -8 -9 -9 -9 -9 -9 -8 -8 -8 -8
-1 -2 -3 -3 -2 -2 -3 -3 -3 -3 -3 -3 -4 -4 -4 -3 -3 -4 -4 -5 -7 -8 -9 -9 -9 -10 -10 -9 -9 -9 -10 -10
-1 -2 -2 -2 -2 -3 -3 -2 -3 -4 -4 -4 -4 -4 -4 -4 -4 -4 -5 -7 -9 -10 -10 -10 -10 -10 -10 -10 -10 -11 -11 -12
-2 -2 -2 -3 -2 -2 -3 -4 -5 -5 -4 -5 -5 -5 -5 -5 -5 -5 -7 -9 -10 -10 -10 -10 -11 -11 -11 -11 -11 -12 -12 -12
-2 -2 -3 -4 -4 -4 -5 -5 -5 -5 -6 -6 -5 -6 -6 -6 -6 -8 -9 -11 -10 -11 -11 -11 -12 -12 -12 -12 -12 -13 -13 -13
-2 -2 -3 -4 -5 -6 -6 -6 -6 -7 -6 -6 -6 -7 -7 -8 -9 -10 -11 -11 -12 -12 -12 -12 -13 -12 -13 -14 -13 -13 -13 -13
-4 -4 -4 -5 -6 -6 -6 -7 -7 -6 -6 -6 -7 -7 -9 -10 -11 -11 -12 -12 -13 -13 -12 -13 -13 -14 -14 -14 -14 -14 -14 -14
-4 -4 -5 -6 -6 -6 -8 -7 -7 -7 -7 -8 -9 -10 -10 -11 -12 -12 -12 -13 -13 -14 -14 -14 -14 -15 -15 -14 -14 -14 -14 -14
-5 -5 -6 -6 -7 -7 -7 -7 -7 -8 -9 -10 -11 -12 -12 -12 -13 -13 -13 -13 -14 -14 -15 -16 -15 -15 -15 -15 -15 -15 -15 -15
-5 -6 -7 -9 -8 -7 -7 -8 -8 -9 -10 -11 -12 -13 -13 -13 -13 -14 -14 -15 -15 -15 -15 -15 -16 -16 -16 -16 -16 -15 -15 -15

GFSFLT1_700_temp_006.txt.gz
Temp
6 5 5 4 4 3 3 3 2 2 2 2 1 1 0 -0 -0 -1 -1 -1 -2 -2 -1 -1 -0 -1 -1 -1 -1 -1 -2 -1
5 5 4 4 4 3 2 3 2 2 1 1 1 0 -0 -1 -1 -1 -2 -2 -2 -2 -2 -2 -2 -2 -2 -2 -2 -2 -2 -2
5 5 4 4 4 3 3 2 2 2 1 1 0 -0 -1 -1 -2 -2 -2 -2 -2 -2 -2 -2 -2 -2 -2 -2 -2 -2 -2 -2
4 4 4 4 3 3 2 2 2 1 1 0 -0 -1 -1 -1 -2 -2 -2 -2 -2 -2 -2 -2 -2 -2 -2 -2 -2 -2 -2 -2
4 3 3 3 2 2 1 1 1 0 0 -0 -1 -1 -1 -1 -2 -2 -2 -2 -2 -3 -3 -3 -3 -2 -2 -2 -2 -2 -2 -2
2 2 2 2 1 1 1 1 0 -0 -0 -1 -1 -1 -2 -2 -2 -2 -2 -3 -3 -4 -3 -3 -3 -3 -3 -2 -2 -3 -3 -3
2 2 1 1 1 1 0 0 -1 -1 -1 -2 -2 -2 -3 -2 -2 -2 -3 -4 -4 -4 -3 -3 -3 -3 -3 -4 -4 -4 -4 -5
2 1 1 0 0 -0 -1 -2 -2 -2 -2 -2 -3 -3 -3 -4 -4 -4 -4 -4 -4 -4 -4 -4 -4 -5 -5 -5 -6 -7 -7 -8
1 0 0 -0 -1 -1 -2 -2 -2 -2 -3 -2 -3 -3 -4 -4 -4 -5 -5 -5 -5 -5 -5 -5 -6 -7 -8 -9 -10 -10 -10 -9
-1 -1 -1 -1 -1 -1 -2 -2 -2 -2 -2 -3 -3 -3 -4 -5 -5 -6 -6 -5 -5 -5 -6 -7 -8 -9 -10 -10 -11 -10 -11 -10
-2 -2 -2 -2 -2 -2 -2 -3 -3 -3 -3 -3 -4 -5 -6 -6 -6 -6 -6 -6 -6 -8 -9 -10 -10 -11 -11 -11 -11 -11 -11 -11
-3 -2 -3 -2 -2 -3 -3 -3 -3 -4 -4 -6 -6 -7 -6 -6 -6 -6 -7 -8 -9 -10 -10 -11 -11 -11 -11 -12 -12 -12 -12 -12
-3 -3 -3 -3 -3 -3 -4 -5 -6 -6 -7 -7 -7 -7 -6 -7 -7 -8 -10 -10 -11 -11 -12 -12 -12 -12 -12 -12 -12 -12 -13 -13
-3 -3 -3 -3 -4 -5 -5 -6 -6 -7 -7 -7 -7 -7 -8 -8 -9 -10 -11 -11 -12 -12 -13 -13 -13 -13 -13 -13 -13 -14 -14 -14
-4 -4 -4 -5 -6 -5 -6 -6 -7 -7 -7 -7 -8 -8 -9 -9 -11 -11 -12 -13 -13 -13 -13 -13 -13 -13 -14 -14 -15 -15 -15 -15
-4 -4 -4 -5 -5 -5 -7 -7 -7 -7 -8 -8 -8 -9 -10 -11 -12 -13 -13 -14 -14 -14 -14 -14 -14 -15 -15 -15 -15 -16 -15 -15
-4 -4 -6 -6 -7 -7 -7 -7 -8 -8 -8 -9 -9 -10 -11 -12 -13 -14 -14 -15 -14 -15 -15 -15 -15 -15 -15 -16 -16 -16 -16 -16
-5 -5 -6 -7 -7 -7 -7 -8 -8 -8 -9 -10 -10 -11 -13 -13 -14 -15 -15 -15 -15 -15 -15 -15 -16 -16 -16 -16 -16 -17 -17 -16
-5 -6 -7 -7 -7 -8 -8 -8 -9 -10 -10 -11 -11 -13 -13 -14 -15 -15 -15 -15 -15 -16 -16 -16 -16 -17 -17 -17 -17 -17 -17 -17

GFSFLT1_700_temp_009.txt.gz
Temp
5 4 4 4 3 3 3 2 2 3 2 2 2 2 1 1 1 0 -0 -1 -1 -1 -1 -1 -1 -1 -1 -1 -1 -1 -1 -1
5 5 5 5 4 4 2 2 3 2 2 2 1 1 1 0 0 -0 -1 -1 -1 -2 -2 -2 -2 -2 -2 -2 -2 -2 -2 -2
5 5 5 4 4 4 3 3 2 2 1 2 1 1 0 0 -1 -1 -1 -1 -2 -2 -2 -2 -2 -2 -2 -2 -2 -2 -2 -2
4 5 4 4 3 3 3 2 2 2 1 1 1 -0 -0 -1 -1 -2 -2 -2 -2 -2 -2 -2 -2 -3 -3 -3 -3 -3 -2 -2
4 4 3 3 3 2 2 2 2 1 1 1 0 -0 -1 -1 -2 -2 -2 -3 -2 -2 -2 -2 -3 -3 -3 -3 -3 -3 -3 -3
3 2 2 2 2 2 1 1 1 1 1 0 -1 -1 -1 -2 -2 -2 -2 -3 -3 -4 -4 -4 -4 -4 -4 -4 -4 -3 -4 -4
2 2 2 2 2 1 1 1 0 -0 -1 -1 -1 -2 -2 -2 -2 -2 -2 -3 -4 -5 -5 -5 -5 -5 -4 -4 -4 -5 -5 -5
2 1 0 1 0 0 -0 -0 -1 -2 -2 -2 -1 -1 -1 -2 -3 -3 -4 -4 -5 -5 -5 -5 -5 -5 -5 -6 -7 -7 -8 -9
0 -0 -1 -2 -1 -1 -1 -1 -1 -1 -1 -1 -2 -3 -3 -3 -4 -5 -5 -5 -5 -5 -5 -5 -6 -6 -7 -9 -9 -9 -10 -11
-1 -1 -2 -2 -1 -1 -1 -1 -2 -2 -3 -3 -3 -3 -4 -4 -5 -5 -5 -6 -6 -6 -6 -7 -8 -9 -9 -10 -11 -11 -11 -11
-1 -1 -2 -3 -3 -2 -2 -2 -2 -3 -4 -4 -4 -5 -6 -6 -6 -6 -6 -6 -7 -8 -9 -10 -10 -11 -11 -12 -12 -12 -12 -12
-1 -2 -2 -3 -4 -4 -4 -4 -4 -5 -5 -5 -5 -6 -7 -7 -7 -7 -7 -8 -9 -10 -10 -11 -12 -12 -12 -12 -12 -12 -12 -13
-2 -3 -3 -3 -3 -4 -4 -4 -5 -5 -5 -6 -7 -7 -7 -8 -8 -8 -9 -10 -11 -12 -12 -12 -13 -13 -13 -13 -13 -13 -13 -14
-3 -3 -3 -4 -4 -4 -5 -5 -5 -6 -6 -7 -7 -8 -8 -8 -8 -9 -10 -11 -11 -12 -12 -13 -14 -14 -14 -14 -15 -15 -15 -16
-4 -4 -3 -4 -4 -5 -6 -7 -6 -7 -7 -8 -8 -8 -8 -9 -9 -11 -12 -12 -13 -13 -14 -14 -14 -14 -15 -15 -15 -15 -15 -16
-3 -4 -4 -4 -5 -6 -7 -9 -8 -9 -8 -8 -8 -9 -9 -10 -11 -12 -13 -13 -14 -14 -15 -15 -16 -16 -17 -15 -16 -16 -16 -16
-3 -4 -5 -5 -8 -8 -9 -9 -10 -10 -9 -11 -11 -10 -11 -12 -12 -13 -14 -14 -15 -15 -15 -16 -17 -17 -17 -15 -16 -16 -16 -16
-5 -5 -6 -8 -9 -9 -9 -9 -10 -10 -11 -12 -12 -12 -12 -13 -14 -15 -16 -16 -16 -17 -17 -18 -18 -17 -17 -16 -16 -17 -17 -17
-5 -7 -7 -8 -9 -9 -9 -9 -10 -10 -11 -12 -12 -13 -13 -14 -15 -16 -17 -17 -17 -18 -18 -17 -16 -17 -17 -17 -17 -17 -17 -17

GFSFLT1_700_temp_012.txt.gz
Temp
7 6 5 5 4 4 3 3 3 2 2 3 1 1 1 1 1 0 0 0 -0 -0 -1 -1 -2 -2 -2 -2 -2 -1 -1 -1
7 5 5 4 4 4 3 3 3 2 2 2 2 2 1 0 0 -1 -1 -0 -0 -1 -1 -1 -2 -1 -2 -2 -2 -2 -2 -2
6 6 5 5 5 4 3 3 3 3 2 2 2 1 1 -0 -1 -1 -1 -2 -2 -2 -2 -2 -2 -2 -2 -2 -3 -3 -3 -3
5 5 5 4 4 3 3 3 2 2 2 1 1 1 0 -1 -2 -2 -2 -2 -3 -2 -2 -3 -2 -3 -3 -3 -3 -4 -3 -3
2 4 3 3 3 3 2 2 2 2 1 1 0 -0 -1 -1 -1 -2 -2 -2 -2 -3 -4 -4 -4 -4 -5 -5 -5 -5 -5 -4
2 2 3 3 3 2 2 1 1 1 1 0 0 -1 -1 -1 -2 -2 -2 -1 -3 -4 -4 -4 -4 -5 -5 -5 -5 -5 -5 -5
1 2 2 2 2 2 1 1 0 -1 -1 -1 -1 -1 -1 -1 -1 -1 -2 -3 -4 -4 -5 -5 -5 -5 -5 -5 -5 -5 -6 -6
0 -0 -0 -1 -0 0 0 -0 -1 -2 -2 -2 -2 -2 -2 -2 -3 -3 -4 -4 -4 -5 -5 -5 -6 -6 -6 -6 -7 -8 -9 -9
0 -0 -1 -1 -2 -1 -2 -1 -1 -2 -2 -2 -2 -2 -3 -4 -4 -4 -4 -5 -5 -6 -7 -7 -7 -7 -7 -8 -9 -10 -11 -11
-0 -1 -1 -1 -2 -2 -2 -3 -3 -3 -2 -3 -3 -3 -4 -4 -4 -5 -6 -6 -7 -7 -7 -8 -8 -9 -10 -10 -11 -12 -12 -12
-1 -1 -1 -1 -1 -2 -3 -3 -3 -4 -4 -5 -5 -5 -5 -5 -6 -7 -7 -7 -7 -8 -8 -9 -10 -11 -12 -12 -12 -12 -13 -13
-0 -1 -2 -2 -3 -3 -3 -4 -4 -4 -5 -5 -5 -5 -6 -7 -7 -7 -8 -8 -9 -9 -10 -11 -12 -12 -12 -13 -13 -13 -13 -13
-1 -1 -2 -2 -3 -3 -3 -4 -4 -4 -5 -6 -6 -7 -8 -7 -8 -8 -8 -9 -9 -10 -11 -12 -13 -13 -14 -14 -14 -14 -14 -14
-2 -3 -3 -3 -3 -3 -3 -4 -5 -6 -6 -7 -7 -8 -7 -8 -8 -8 -9 -10 -11 -12 -13 -14 -14 -14 -14 -14 -15 -15 -14 -15
-3 -3 -3 -3 -3 -4 -5 -6 -8 -8 -8 -9 -8 -8 -8 -9 -9 -11 -11 -12 -13 -14 -14 -15 -15 -15 -16 -16 -15 -15 -15 -16
-3 -3 -3 -4 -4 -6 -7 -8 -9 -9 -8 -9 -10 -10 -10 -10 -11 -12 -12 -13 -14 -15 -16 -16 -16 -16 -17 -16 -15 -16 -16 -16
-3 -3 -4 -5 -7 -8 -8 -9 -9 -8 -9 -9 -10 -10 -11 -11 -12 -12 -13 -15 -15 -16 -16 -17 -17 -17 -17 -16 -16 -17 -17 -17
-4 -5 -8 -8 -9 -9 -9 -9 -9 -9 -9 -10 -10 -10 -11 -11 -12 -12 -14 -15 -16 -16 -17 -17 -17 -17 -17 -17 -17 -17 -17 -18
-5 -8 -9 -9 -9 -10 -10 -10 -10 -10 -10 -10 -10 -11 -11 -13 -13 -12 -13 -15 -16 -17 -17 -17 -17 -17 -17 -18 -17 -17 -18 -18

GFSFLT1_700_temp_015.txt.gz
Temp
6 6 5 5 4 4 4 4 4 3 2 3 3 3 2 1 1 1 1 0 -0 -0 -2 -2 -1 -1 -1 -1 -1 -2 -2 -2
6 6 5 5 4 4 4 4 3 3 2 2 2 2 1 1 0 -0 -1 -1 -1 -1 -1 -1 -2 -2 -2 -2 -2 -2 -2 -2
6 6 5 5 5 5 4 4 3 3 2 2 2 1 1 -0 -1 -1 -1 -2 -2 -2 -2 -2 -2 -2 -2 -3 -3 -3 -3 -3
6 6 6 5 4 4 3 3 3 2 2 2 1 1 1 0 -1 -2 -2 -2 -2 -2 -2 -2 -3 -3 -4 -4 -4 -4 -4 -4
6 6 5 4 3 3 3 2 2 2 1 1 0 -0 -1 -1 -1 -1 -1 -2 -2 -2 -2 -3 -3 -4 -4 -4 -5 -5 -5 -5
4 4 3 3 3 2 2 2 2 2 1 1 -0 -0 -0 -1 -1 -2 -2 -3 -4 -4 -4 -4 -5 -5 -5 -5 -5 -6 -6 -6
2 2 2 2 2 2 2 1 -0 -1 -1 -1 -1 -1 -1 -2 -2 -3 -3 -4 -4 -4 -5 -5 -5 -5 -6 -6 -6 -7 -7 -8
1 1 -0 -0 -0 -0 0 -0 -1 -1 -1 -2 -3 -3 -4 -4 -4 -4 -4 -4 -5 -5 -6 -6 -6 -7 -7 -8 -8 -9 -9 -10
-0 -1 -1 -2 -2 -2 -1 -1 -1 -2 -2 -3 -3 -3 -4 -5 -5 -5 -5 -5 -6 -6 -7 -7 -7 -8 -8 -9 -10 -11 -11 -12
-1 -0 -0 -1 -1 -2 -2 -2 -2 -3 -3 -4 -4 -4 -4 -5 -5 -5 -5 -6 -7 -7 -8 -8 -9 -9 -10 -11 -11 -12 -12 -12
0 -0 -0 -1 -1 -1 -2 -2 -3 -3 -4 -4 -5 -5 -5 -6 -6 -6 -6 -7 -8 -8 -9 -9 -10 -11 -11 -12 -13 -13 -13 -13
0 0 -0 -1 -2 -2 -2 -3 -4 -3 -4 -4 -5 -6 -6 -7 -8 -8 -8 -9 -9 -9 -9 -10 -10 -12 -13 -13 -14 -14 -14 -14
-0 -1 -1 -2 -2 -3 -3 -3 -4 -4 -5 -5 -6 -8 -9 -9 -9 -9 -9 -10 -10 -10 -10 -11 -12 -13 -14 -14 -14 -15 -15 -15
-1 -2 -2 -3 -3 -3 -3 -3 -4 -5 -7 -8 -8 -9 -9 -9 -9 -10 -10 -11 -12 -11 -12 -13 -13 -14 -15 -15 -15 -15 -15 -16
-2 -2 -2 -3 -3 -3 -4 -5 -7 -8 -9 -9 -9 -9 -9 -9 -10 -10 -10 -12 -13 -12 -13 -14 -14 -14 -15 -16 -16 -16 -16 -17
-2 -2 -3 -3 -4 -5 -6 -8 -8 -8 -9 -9 -10 -10 -10 -10 -11 -11 -11 -13 -13 -12 -14 -15 -14 -14 -16 -17 -17 -17 -17 -17
-3 -4 -4 -4 -5 -7 -9 -9 -8 -9 -10 -10 -10 -11 -11 -11 -12 -12 -13 -14 -14 -13 -15 -15 -14 -16 -17 -17 -17 -17 -17 -17
-4 -4 -4 -7 -8 -9 -9 -9 -10 -10 -10 -11 -11 -11 -12 -12 -12 -12 -13 -14 -14 -14 -15 -15 -15 -17 -17 -17 -17 -17 -18 -18
-4 -5 -8 -9 -9 -9 -9 -10 -10 -10 -11 -11 -12 -13 -13 -13 -13 -13 -14 -14 -14 -15 -15 -15 -17 -17 -17 -17 -17 -17 -18 -18